CZ-11 R/B (43444 NORAD) Tracking and Keplerian Element Data

This shows tracking and keplerian element data for the satellite.

Feedback or suggestion? Click here.




ElementValue
Catalog43444
NameCZ-11 R/B
Epoch Orbit59
Epoch Day119.85863762
Epoch Year2018
RAAN203.1709
Inclination97.2471
Eccentricity0.0043652
Argument of Perigee288.6384
Mean Anonmoly71.9465
Mean Motion16.57295348
Decay Rate0.99999999
L11 43444U 18040F 18119.85863762 .99999999 26966-5 41943-3 0 9997
L22 43444 97.2471 203.1709 0043652 288.6384 71.9465 16.57295348 598

Live tracking and technical data element details for CZ-11 R/B (NORAD 43444). CZ-11 R/B can be tracked NOW for your location showing map with azimuth and elevation plus other details from your city location.

Track the satellite on the map from your city or location and see movement details for azimuth, elevation, latitude, longitude, range, height, and movement on the map or in text.







IsCatalogInMostPopularTable: catalog: 43444, numindb: 22
Update: records affected: 1



GetName: 43444 CZ-11 R/B

Hit Count: updated at: Thu, 19 Jul 2018 03:50:23 GMT